This is the latest recevied weather packets stored in our database for station/object N4OOJ-13. If no packets are shown the sender has not sent any weather packets the latest 10 day(s).
| Time | Temp. | Humidity | Pressure | Rain* | Wind** | Luminosity | Snow |
|---|---|---|---|---|---|---|---|
| 1777657220 | 21.11° C | 84% | 1014.7 hPa | 0 mm | - | - | - |
| 1777656632 | 21.67° C | 83% | 1014.8 hPa | 0 mm | - | - | - |
| 1777656027 | 21.67° C | 82% | 1014.6 hPa | 0 mm | - | - | - |
| 1777655420 | 21.67° C | 82% | 1014.6 hPa | 0 mm | - | - | - |
| 1777654833 | 21.67° C | 80% | 1014.6 hPa | 0 mm | - | - | - |
| 1777654227 | 21.67° C | 81% | 1014.6 hPa | 0 mm | - | - | - |
| 1777653627 | 21.67° C | 81% | 1015 hPa | 0 mm | - | - | - |
| 1777653021 | 22.22° C | 80% | 1014.8 hPa | 0 mm | - | - | - |
| 1777652427 | 21.67° C | 82% | 1015 hPa | 0 mm | - | - | - |
| 1777651821 | 21.67° C | 81% | 1015.1 hPa | 0 mm | - | - | - |
| 1777651221 | 21.67° C | 81% | 1015.1 hPa | 0 mm | - | - | - |
| 1777650616 | 22.22° C | 79% | 1015.1 hPa | 0 mm | - | - | - |
| 1777650029 | 21.67° C | 81% | 1015.1 hPa | 0 mm | - | - | - |
| 1777649430 | 22.22° C | 81% | 1015.2 hPa | 0 mm | - | - | - |
| 1777648829 | 21.67° C | 81% | 1015.3 hPa | 0 mm | - | - | - |
| 1777648229 | 22.22° C | 79% | 1015.1 hPa | 0 mm | - | - | - |
| 1777647628 | 21.67° C | 80% | 1015.1 hPa | 0 mm | - | - | - |
| 1777647028 | 22.22° C | 80% | 1015.1 hPa | 0 mm | - | - | - |
| 1777646427 | 22.22° C | 78% | 1014.8 hPa | 0 mm | - | - | - |
| 1777645821 | 22.22° C | 79% | 1014.8 hPa | 0 mm | - | - | - |
| 1777645216 | 21.67° C | 81% | 1014.9 hPa | 0 mm | - | - | - |
| 1777644629 | 21.11° C | 82% | 1014.9 hPa | 0 mm | - | - | - |
| 1777644030 | 21.11° C | 83% | 1014.9 hPa | 0 mm | - | - | - |
| 1777643429 | 20.56° C | 84% | 1014.9 hPa | 0 mm | - | - | - |
| 1777642823 | 20.56° C | 85% | 1014.8 hPa | 0 mm | - | - | - |
* Rain latest hour (hover to see other rain measurements)
** Current wind speed in m/s (hover to see current wind gust speed)